www.pogodaiklimat.ru

Погода и климат >> Архив погоды >> Маврикий >> Сент-Брендон


ПОГОДА в Сент-Брендоне

  • Прогноз погоды в Сент-Брендоне
  • Монитор погоды в Сент-Брендоне

АРХИВ ПОГОДЫ в Сент-Брендоне

Время (UTC), дата Ветер
(напр.,м/с)
 
Видим.   Явления Облачность Т
(С)
Тd
(С)
f
(%)
Тe
(С)
Тes
(С)
Комфортность P
(гПа)
Po
(гПа)
Тmin
(С)
Tmax
(С)
R
(мм)
R24
(мм)
S
(см)
18 18.06 ЮВ 8 15 км осадки на расстоянии {ливн. осадки} 9/9 480 м
[Cu Sc]
+24.3 +20.5 79 +30 +30 очень
душно
1017.8 1017.3 +26.6 0.6
00 19.06 ЮВ 8 10 км в посл. час ливневой дождь 10/10 450 м
[Cu Sc]
+23.4 +21.5 89 +32 +32 очень
душно
1016.4 1015.9 12
03 19.06 В 12 5000 м осадки на расстоянии {ливн. осадки} 10/10 400 м
[Cu Sc]
+23.5 +21.2 87 +30 +30 очень
душно
1017.0 1016.5 0.4
06 19.06 В 8 12 км осадки на расстоянии {ливн. осадки} 9/9 450 м
[Cu Sc]
+25.0 +21.7 82 +32 +32 очень
душно
1017.8 1017.3 +22.2 13
09 19.06 В 7 20 км 9/9 500 м
[Cu Sc]
+25.6 +21.4 78 +33 +33 очень
душно
1016.2 1015.7
12 19.06 В 8 20 км 9/9 500 м
[Cu Sc]
+25.7 +21.1 76 +32 +33 очень
душно
1016.2 1015.7
15 19.06 В 7 20 км 4/4 540 м
[Cu Sc]
+24.8 +20.3 76 +31 +31 очень
душно
1017.1 1016.6
18 19.06 0 н/о +20.9 1018.0 +27.2
00 20.06 ЮВ 11 20 км 5/5 540 м
[Cu Sc]
+24.7 +21.4 82 +31 +31 очень
душно
1016.9 1016.4
03 20.06 ЮВ 9 25 км 3/3 540 м
[Cu Sc]
+24.6 +20.8 79 +31 +31 очень
душно
1017.3 1016.8
06 20.06 ЮВ 9 30 км 4/4 600 м
[Cu Sc Ac lent]
+25.5 +20.5 74 +32 +32 очень
душно
1018.6 1018.1 +23.6
09 20.06 ЮВ 8 12 км в посл. час ливневой дождь 5/5 480 м
[Cu Sc Ac lent Ci sp]
+25.7 +21.7 79 +33 +34 очень
душно
1016.7 1016.2 0.8
12 20.06 ЮВ 9 8000 м осадки на расстоянии {ливн. осадки} 6/5 480 м
[Cu Sc Ac lent]
+25.5 +22.1 81 +33 +33 очень
душно
1016.2 1015.7 0.1
15 20.06 ЮВ 7 10 км осадки на расстоянии 8/8 480 м
[Cu Sc Ac lent]
+25.3 +21.9 81 +33 +33 очень
душно
1017.1 1016.6
18 20.06 ЮВ 9 15 км осадки на расстоянии {ливн. осадки} 6/6 480 м
[Cu Sc]
+25.0 +21.6 81 +32 +32 очень
душно
1018.2 1017.7 +25.8 1
00 21.06 ЮВ 9 15 км осадки на расстоянии {ливн. осадки} 6/6 480 м
[Cu Sc]
+25.2 +20.5 75 +31 +31 очень
душно
1017.0 1016.5 0.5
03 21.06 ЮВ 13 15 км осадки на расстоянии 8/6 400 м
[Cu Sc Ac lent]
+24.8 +15.7 57 +28 +28 жарко 1017.8 1017.3
06 21.06 ЮВ 11 15 км осадки на расстоянии 8/8 480 м
[Cu Sc Ac lent]
+25.2 +21.0 78 +32 +32 очень
душно
1018.7 1018.2 +23.0 2
09 21.06 ЮВ 10 5000 м в посл. час ливневой дождь 9/9 450 м
[Cu Sc]
+24.2 +22.4 90 +32 +32 очень
душно
1017.1 1016.6 1
12 21.06 ЮВ 9 8000 м слаб. ливневой дождь 9/9 450 м
[Cu Sc]
+24.7 +22.5 88 +32 +32 очень
душно
1016.4 1015.9 3
15 21.06 ЮВ 10 4000 м в посл. час ливневой дождь 10/10 400 м
[Cu Sc]
+23.7 +21.9 90 +31 +31 очень
душно
1017.8 1017.3 5
18 21.06 ЮВ 10 8000 м осадки на расстоянии {ливн. осадки} 10/10 420 м
[Cu Sc]
+24.3 +21.8 86 +31 +31 очень
душно
1018.5 1018.0 +25.5 9
00 22.06 ЮВ 10 20 км 8/8 500 м
[Cu Sc]
+24.6 +19.7 74 +30 +30 очень
душно
1016.2 1015.7
03 22.06 ЮВ 7 20 км 4/4 540 м
[Cu Sc]
+24.8 +19.6 73 +30 +30 душно 1016.9 1016.4
06 22.06 ЮВ 9 15 км осадки на расстоянии 8/8 480 м
[Cu Sc]
+24.5 +21.5 83 +31 +31 очень
душно
1017.8 1017.3 +22.9 9
09 22.06 ЮВ 5 15 км в посл. час ливневой дождь 6/6 480 м
[Cu Sc]
+24.1 +21.9 88 +31 +34 очень
душно
1016.1 1015.6 1
12 22.06 В 11 15 км осадки на расстоянии {ливн. осадки} 6/5 500 м
[Cu Sc Ac lent Ci sp]
+26.0 +21.9 78 +33 +33 очень
душно
1015.1 1014.6 1
15 22.06 В 9 5000 м слаб. ливневой дождь 9/9 450 м
[Cu Sc]
+24.9 +21.8 83 +32 +32 очень
душно
1016.2 1015.7 0.3
18 22.06 ЮВ 10 15 км осадки на расстоянии {ливн. осадки} 6/6 480 м
[Cu Sc]
+24.8 +20.9 79 +31 +31 очень
душно
1016.7 1016.2 +26.3 2
00 23.06 В 7 12 км осадки на расстоянии {ливн. осадки} 8/8 480 м
[Cu Sc]
+24.3 +21.3 83 +31 +31 очень
душно
1014.1 1013.6 2
03 23.06 ЮВ 8 20 км 6/6 480 м
[Cu Sc]
+24.6 +20.2 77 +30 +30 очень
душно
1014.5 1014.0
06 23.06 В 9 12 км осадки на расстоянии 6/6 480 м
[Cu Sc]
+25.5 +11.4 41 +27 +27 жарко 1015.2 1014.7 +23.0 4
09 23.06 ЮВ 7 15 км осадки на расстоянии 8/8 480 м
[Cu Sc]
+27.2 +21.1 69 +34 +35 очень
душно
1014.1 1013.6
12 23.06 ЮВ 6 25 км 5/3 540 м
[Cu Sc Ci sp]
+26.5 +20.0 68 +33 +33 очень
душно
1013.6 1013.1
15 23.06 ЮВ 9 20 км 5/5 540 м
[Cu Sc Ci sp]
+24.5 +21.5 83 +31 +31 очень
душно
1014.9 1014.4
18 23.06 В 7 20 км 5/5 540 м
[Cu Sc Ci sp]
+25.2 +21.0 78 +32 +32 очень
душно
1015.6 1015.1 +27.8
00 24.06 В 8 10 км осадки на расстоянии 8/8 500 м
[Cu Sc Ci sp]
+25.0 +21.6 81 +32 +32 очень
душно
1014.1 1013.6
03 24.06 ЮВ 9 15 км осадки на расстоянии 8/8 500 м
[Cu Sc]
+25.3 +22.2 83 +33 +33 очень
душно
1014.6 1014.1
06 24.06 В 6 15 км осадки на расстоянии {ливн. осадки} 5/5 500 м
[Cu Sc]
+26.7 +22.2 76 +35 +36 очень
душно
1015.4 1014.9 +24.4 0.8
09 24.06 В 8 25 км 5/5 600 м
[Cu Sc]
+28.4 +22.3 70 +37 +38 очень
душно
1013.9 1013.4
12 24.06 В 7 25 км 3/3 600 м
[Cu Sc]
+27.5 +21.9 72 +36 +36 очень
душно
1013.3 1012.8
15 24.06 В 8 20 км 3/3 540 м
[Cu Sc]
+25.6 +22.2 82 +33 +33 очень
душно
1014.5 1014.0
18 24.06 В 9 20 км 3/3 570 м
[Cu Sc]
+25.2 +21.5 80 +32 +32 очень
душно
1015.5 1015.0 +28.6
00 25.06 В 6 15 км осадки на расстоянии 5/5 480 м
[Cu Sc]
+24.8 +22.0 84 +32 +32 очень
душно
1013.6 1013.1
03 25.06 В 8 10 км осадки на расстоянии {ливн. осадки} 9/9 450 м
[Cu Sc]
+25.0 +22.3 85 +33 +33 очень
душно
1014.5 1014.0 0.5
06 25.06 В 10 15 км осадки на расстоянии {ливн. осадки} 9/9 480 м
[Cu Sc]
+26.3 +22.5 80 +35 +35 очень
душно
1015.2 1014.7 +23.5 0.5
09 25.06 В 9 10 км осадки на расстоянии {ливн. осадки} 9/9 480 м
[Cu Sc]
+26.3 +23.4 84 +36 +36 очень
душно
1013.9 1013.4 0.0
12 25.06 СВ 11 10 км осадки на расстоянии {ливн. осадки} 10/10 450 м
[Cu Sc]
+24.8 +22.3 86 +32 +32 очень
душно
1013.1 1012.6 0.1
15 25.06 В 12 8000 м осадки на расстоянии {ливн. осадки} 10/10 400 м
[Cu Sc]
+26.0 +22.5 81 +34 +34 очень
душно
1014.4 1013.9 2

 

Местоположение метеостанции Сент-Брендон (Маврикий): широта -16.45 долгота 59.62 высота над уровнем моря 4 м.

В архиве по умолчанию представлена погода в Сент-Брендоне за последнюю неделю. Архивные данные за месяц целиком и за предыдущие месяцы, начиная с января 2011 года, Вы можете получить, выбрав интересующий диапазон дат из раскрывающегося списка и нажав кнопку "Ввод!".


*Определитесь, кто Вы:
робот инопланетянин человек

Внимание! Время в таблицах - всемирное. Для получения местного времени необходимо прибавить поправку, которая равна 4 ч.

Смотрите также архив погоды в соседних городах и на ближайших метеорологических станциях:

Погода в Вакоасе (Маврикий) (483 км)
Погода в Аэропорту сэра С. Рамгулама (Маврикий) (488 км)
Погода на Родригесе (Маврикий) (539 км)
Погода в Аэропорту сэра Г. Дюваля (Маврикий) (540 км)
Погода в Серже-Фролоу (Реюньон) (552 км)
Погода в Сен-Дени (Реюньон) (655 км)
Погода на Агалега (Маврикий) (738 км)
Погода в Анталахе (Мадагаскар) (1018 км)
Погода в Самбаве (Мадагаскар) (1042 км)
Погода на Нуси Бураха (Мадагаскар) (1046 км)

Пояснения к столбцам:

Ветер - указаны скорость ветра в м/с - средняя за 10 мин, порывы в срок и между сроками (в фигурных скобках) и направление, откуда дует ветер: С - северный, СВ - северо-восточный, В - восточный, ЮВ - юго-восточный, Ю - южный, ЮЗ - юго-западный, З - западный, СЗ - северо-западный.
Видимость - горизонтальная дальность видимости в метрах или километрах. При видимости от 1 до 10 км при отсутствии осадков обычно наблюдается дымка, при ухудшении видимости до 1 км и менее - туман. В сухую погоду видимость может ухудшаться дымом, пылью или мглою.
Явления - указаны атмосферные явления, наблюдавшиеся в срок или в последний час перед сроком; фигурными скобками обозначены явления, наблюдавшиеся между сроками (за 1-3 часа до срока); квадратными скобками обозначены град или гололедные отложения с указанием их диаметра в мм.
Облачность - указаны через наклонную черту общая и нижняя облачность в баллах и высота нижней границы облаков в метрах; квадратными скобками обозначены формы облаков: Ci - перистые, Cs - перисто-слоистые, Cc - перисто-кучевые, Ac - высококучевые, As - высокослоистые, Sc - слоисто-кучевые, Ns - слоисто-дождевые, Cu - кучевые, Cb - кучево-дождевые. Подробнее классификацию облаков см. в Атласе облаков (PDF).
T - Температура воздуха - температура, измеренная на высоте 2 м над землей.
Td - Температура точки росы - температура, при понижении до которой содержащийся в воздухе водяной пар достигнет насыщения.
f - Относительная влажность воздуха - влажноcть воздуха, измеренная на высоте 2 м над землей.
Te - Эффективная температура - температура, которую ощущает одетый по сезону человек в тени. Характеристика душности погоды. При расчете учитывается влияние влажности воздуха и скорости ветра на теплоощущения человека.
Tes - Эффективная температура на солнце - температура, которую ощущает человек, с поправкой на солнечный нагрев. Характеристика знойности погоды. Зависит от высоты солнца над горизонтом, облачности и скорости ветра. Ночью, в пасмурную погоду, а также при ветре 12 м/с и более поправка равна нулю.
P - Атмосферное давление - приведенное к уровню моря атмосферное давление.
Po - Атмосферное давление - измеренное на уровне метеостанции атмосферное давление.
Tmin - Минимальная температура - минимум температуры воздуха на высоте 2 м над землей.
Tmax - Максимальная температура - максимум температуры воздуха на высоте 2 м над землей.
R - Количество осадков - Количество выпавших осадков за период времени, мм. При наведении курсора мыши на число - период времени, за который выпало указанное количество осадков.
R24 - Количество осадков - Количество выпавших осадков за 24 часа, мм.
S - Снежный покров - Высота снежного покрова, см. При наведении курсора мыши на число - состояние снежного покрова и степень покрытия местности в баллах.